time_stamp(utc),avg(mph),gust(mph),direction(deg),12m_air_temp(f),sonic_u(cm/s),sonic_v(cm/s),sonic_w(cm/s),pressure,2m_air_temp(f),pyranometer(W/m^2)
"2016-10-07 00:02:20+00",6.9,7.9,,62.5,304,-8,15,1025.09,60.7,0
"2016-10-07 00:07:20+00",8.5,9.5,,62.4,379,21,18,1025.13,60.5,0
"2016-10-07 00:12:20+00",7.1,8.1,,62.5,309,14,18,1025.14,60.5,0
"2016-10-07 00:17:20+00",8.3,9.3,,62.5,357,-28,14,1025.12,60.5,0
"2016-10-07 00:22:20+00",7.5,8.5,,62.6,330,3,15,1025.11,60.5,0
"2016-10-07 00:27:20+00",6.5,7.5,,62.3,290,-7,15,1025.16,60.5,0
"2016-10-07 00:32:20+00",6.5,7.5,,62.4,279,-60,6,1025.13,60.3,0
"2016-10-07 00:37:20+00",7.1,9.1,,62.5,311,-5,15,1025.23,60.3,0
"2016-10-07 00:42:20+00",7.7,9.7,,62.6,340,-24,19,1025.15,60.1,0
"2016-10-07 00:47:20+00",8.0,9.0,,62.7,351,-37,16,1025.23,60,0
"2016-10-07 00:52:20+00",7.6,8.6,,62.5,332,20,14,1025.21,59.9,0
"2016-10-07 00:57:20+00",6.5,7.5,,62.5,282,35,16,1025.18,59.9,0
"2016-10-07 01:02:20+00",7.7,8.7,,62.3,335,32,20,1025.21,59.7,0
"2016-10-07 01:07:20+00",7.3,8.3,,62.5,309,63,24,1025.13,59.5,0
"2016-10-07 01:12:20+00",7.0,7.0,,62.2,300,33,19,1025.24,59.4,0
"2016-10-07 01:17:20+00",6.4,6.4,,62.4,280,21,19,1025.25,59.2,0
"2016-10-07 01:22:20+00",7.8,8.8,,62.5,336,65,22,1025.26,59.2,0
"2016-10-07 01:27:20+00",7.4,8.4,,62.6,317,65,21,1025.25,59.2,0
"2016-10-07 01:32:20+00",7.3,8.3,,62.4,319,43,20,1025.24,59.1,0
"2016-10-07 01:37:20+00",7.5,8.5,,62.6,326,37,22,1025.42,59.1,0
"2016-10-07 01:42:20+00",6.1,6.1,,62.4,259,30,20,1025.44,59.1,0
"2016-10-07 01:47:20+00",6.2,6.2,,62.3,269,15,16,1025.36,59.1,0
"2016-10-07 01:52:20+00",7.0,7.0,,62.5,304,29,16,1025.37,59.1,0
"2016-10-07 01:57:20+00",7.2,7.2,,62.6,312,47,23,1025.28,59,0
"2016-10-07 02:02:20+00",6.6,6.6,,62.6,282,98,15,1025.38,59,0
"2016-10-07 02:07:20+00",7.3,8.3,,62.5,296,117,9,1025.3,58.8,0
"2016-10-07 02:12:20+00",6.6,6.6,,62.5,274,100,12,1025.28,58.7,0
"2016-10-07 02:17:20+00",6.0,6.0,,62.4,251,81,15,1025.32,58.6,0
"2016-10-07 02:22:20+00",5.1,6.1,,62.3,211,50,15,1025.43,58.5,0
"2016-10-07 02:27:20+00",5.0,5.0,,62.1,206,42,13,1025.42,58.6,0
"2016-10-07 02:32:20+00",5.5,6.5,,62.2,233,38,16,1025.4,58.7,0
"2016-10-07 02:37:20+00",5.4,5.4,,62.1,233,18,12,1025.36,58.8,0
"2016-10-07 02:42:20+00",5.9,6.9,,62.3,253,13,17,1025.28,58.8,0
"2016-10-07 02:47:20+00",5.6,6.6,,62.3,241,-8,11,1025.29,58.8,0
"2016-10-07 02:52:20+00",6.0,7.0,,62.3,256,-8,11,1025.22,59,0
"2016-10-07 02:57:20+00",6.9,7.9,,62.5,302,21,20,1025.11,58.9,0
"2016-10-07 03:02:20+00",6.5,7.5,,62.4,278,17,22,1025.17,58.9,0
"2016-10-07 03:07:20+00",6.5,7.5,,62.4,289,9,11,1025.2,58.8,0
"2016-10-07 03:12:20+00",7.8,8.8,,62.4,347,28,20,1025.16,58.9,0
"2016-10-07 03:17:20+00",7.2,8.2,,62.6,315,29,19,1025.2,58.9,0
"2016-10-07 03:22:20+00",6.5,7.5,,62.5,282,30,15,1025.17,58.9,0
"2016-10-07 03:27:20+00",7.3,8.3,,62.5,317,32,19,1025.14,58.9,0
"2016-10-07 03:32:20+00",6.5,7.5,,62.6,283,25,18,1025.15,59,0
"2016-10-07 03:37:20+00",7.1,8.1,,62.6,309,11,14,1025.17,59,0
"2016-10-07 03:42:20+00",7.6,8.6,,62.5,336,33,20,1025.05,59.1,0
"2016-10-07 03:47:20+00",7.6,7.6,,62.6,331,39,20,1024.96,59.2,0
"2016-10-07 03:52:20+00",7.1,8.1,,62.5,311,2,15,1025.01,59.3,0
"2016-10-07 03:57:20+00",8.6,8.6,,62.5,374,54,20,1024.97,59.4,0
"2016-10-07 04:02:20+00",8.2,9.2,,62.6,361,30,18,1024.87,59.5,0
"2016-10-07 04:07:20+00",7.4,8.4,,62.5,319,36,19,1024.82,59.7,0
"2016-10-07 04:12:20+00",7.8,9.8,,62.5,334,47,23,1024.82,59.8,0
"2016-10-07 04:17:20+00",8.7,9.7,,62.7,384,23,18,1024.73,59.9,0
"2016-10-07 04:22:20+00",8.4,8.4,,62.7,365,60,18,1024.69,60,0
"2016-10-07 04:27:20+00",7.4,8.4,,62.7,324,31,17,1024.65,59.9,0
"2016-10-07 04:32:20+00",7.7,8.7,,62.7,339,32,21,1024.62,60,0
"2016-10-07 04:37:20+00",6.9,7.9,,62.7,305,13,16,1024.66,60.1,0
"2016-10-07 04:42:20+00",7.2,8.2,,62.7,318,-15,11,1024.72,60.2,0
"2016-10-07 04:47:20+00",7.2,8.2,,62.6,315,-3,14,1024.74,60.2,0
"2016-10-07 04:52:20+00",7.1,8.1,,62.7,308,33,12,1024.71,60,0
"2016-10-07 04:57:20+00",7.7,7.7,,62.7,339,27,20,1024.65,60,0
"2016-10-07 05:02:20+00",6.2,7.2,,62.6,270,22,12,1024.65,60,0
"2016-10-07 05:07:20+00",7.9,8.9,,62.7,345,39,19,1024.57,59.8,0
"2016-10-07 05:12:20+00",7.2,7.2,,62.7,311,45,21,1024.48,59.8,0
"2016-10-07 05:17:20+00",8.7,9.7,,62.6,379,43,23,1024.43,59.8,0
"2016-10-07 05:22:20+00",8.4,9.4,,62.8,372,39,23,1024.37,59.9,0
"2016-10-07 05:27:20+00",7.9,8.9,,62.7,346,37,20,1024.35,60,0
"2016-10-07 05:32:20+00",7.2,8.2,,62.7,317,29,24,1024.44,60.1,0
"2016-10-07 05:37:20+00",8.7,9.7,,62.8,383,23,16,1024.46,60.2,0
"2016-10-07 05:42:20+00",7.9,8.9,,62.8,345,61,19,1024.5,60.3,0
"2016-10-07 05:47:20+00",7.7,8.7,,62.7,328,71,16,1024.46,60.2,0
"2016-10-07 05:52:20+00",8.6,9.6,,62.8,371,79,21,1024.46,60.1,0
"2016-10-07 05:57:20+00",8.2,9.2,,62.8,351,80,18,1024.41,60.1,0
"2016-10-07 06:02:20+00",8.6,9.6,,62.7,375,55,23,1024.4,60.1,0
"2016-10-07 06:07:20+00",8.2,9.2,,62.7,354,57,20,1024.39,60,0
"2016-10-07 06:12:20+00",7.2,8.2,,62.5,308,63,15,1024.39,59.9,0
"2016-10-07 06:17:20+00",8.3,9.3,,62.5,352,85,25,1024.32,59.8,0
"2016-10-07 06:22:20+00",7.2,8.2,,62.5,311,99,18,1024.33,59.6,0
"2016-10-07 06:27:20+00",8.0,8.0,,62.4,342,89,22,1024.34,59.5,0
"2016-10-07 06:32:20+00",7.6,9.6,,62.4,322,95,20,1024.07,59.4,0
"2016-10-07 06:37:20+00",7.0,7.0,,62.1,301,100,18,1024.07,59.3,0
"2016-10-07 06:42:20+00",7.7,8.7,,62.2,305,136,8,1023.99,59.2,0
"2016-10-07 06:47:20+00",7.4,8.4,,62.2,286,144,25,1024.02,59,0
"2016-10-07 06:52:20+00",5.0,6.0,,61.2,99,176,7,1023.94,58.4,0
"2016-10-07 06:57:20+00",6.3,6.3,,60.7,142,220,0,1023.96,58,0
"2016-10-07 07:02:20+00",5.6,6.6,,60.2,138,173,0,1023.91,58,0
"2016-10-07 07:07:20+00",5.9,6.9,,59.8,115,217,4,1023.77,57.8,0
"2016-10-07 07:12:20+00",7.8,8.8,,59.5,144,296,-8,1023.68,57.6,0
"2016-10-07 07:17:20+00",6.6,6.6,,59.4,161,209,5,1023.63,57.4,0
"2016-10-07 07:22:20+00",6.6,6.6,,59.2,155,222,8,1023.59,57.3,0
"2016-10-07 07:27:20+00",7.5,7.5,,59.3,186,234,7,1023.59,57.1,0
"2016-10-07 07:32:20+00",7.6,7.6,,59,184,261,15,1023.55,57,0
"2016-10-07 07:37:20+00",8.2,9.2,,59.4,194,286,13,1023.48,57,0
"2016-10-07 07:42:20+00",7.2,7.2,,59.4,160,253,6,1023.53,57.1,0
"2016-10-07 07:47:20+00",7.7,7.7,,59.5,148,286,5,1023.48,57.1,0
"2016-10-07 07:52:20+00",8.0,8.0,,59.5,156,299,7,1023.46,57.1,0
"2016-10-07 07:57:20+00",7.6,8.6,,59.6,153,279,9,1023.42,57,0
"2016-10-07 08:02:20+00",7.8,8.8,,59.6,165,285,11,1023.47,57,0
"2016-10-07 08:07:20+00",7.6,8.6,,59.5,132,282,6,1023.59,56.8,0
"2016-10-07 08:12:20+00",7.3,8.3,,59.6,150,270,-1,1023.62,56.8,0
"2016-10-07 08:17:20+00",7.0,7.0,,59.5,103,259,0,1023.61,56.8,0
"2016-10-07 08:22:20+00",8.0,9.0,,59.3,89,317,-1,1023.53,56.7,0
"2016-10-07 08:27:20+00",6.8,6.8,,58.7,71,266,-5,1023.55,56.7,0
"2016-10-07 08:32:20+00",8.0,9.0,,58.5,148,296,4,1023.5,56.6,0
"2016-10-07 08:37:20+00",8.0,9.0,,58.2,191,274,13,1023.44,56.5,0
"2016-10-07 08:42:20+00",8.9,9.9,,58.3,232,269,6,1023.55,56.5,0
"2016-10-07 08:47:20+00",8.9,9.9,,58.3,254,262,14,1023.48,56.6,0
"2016-10-07 08:52:20+00",8.9,9.9,,58.3,247,268,16,1023.41,56.7,0
"2016-10-07 08:57:20+00",8.5,10.5,,58.4,236,263,2,1023.47,56.6,0
"2016-10-07 09:02:20+00",8.2,9.2,,58.1,185,297,23,1023.45,56.4,0
"2016-10-07 09:07:20+00",7.4,8.4,,57.9,157,263,6,1023.59,56.3,0
"2016-10-07 09:12:20+00",8.0,9.0,,57.7,153,296,20,1023.62,56.3,0
"2016-10-07 09:17:20+00",7.3,8.3,,57.5,177,241,3,1023.62,56.2,0
"2016-10-07 09:22:20+00",8.6,9.6,,57.6,225,259,2,1023.59,56.1,0
"2016-10-07 09:27:20+00",9.0,10.0,,58.1,313,231,22,1023.56,56.3,0
"2016-10-07 09:32:20+00",9.4,10.4,,58.2,324,238,14,1023.46,56.6,0
"2016-10-07 09:37:20+00",7.9,8.9,,58.7,294,180,20,1023.46,56.8,0
"2016-10-07 09:42:20+00",7.6,9.6,,59.2,275,179,14,1023.6,57.1,0
"2016-10-07 09:47:20+00",7.5,8.5,,59.2,264,183,22,1023.63,57,0
"2016-10-07 09:52:20+00",6.4,7.4,,59,216,162,8,1023.5,57,0
"2016-10-07 09:57:20+00",5.5,7.5,,59,234,47,19,1023.6,57,0
"2016-10-07 10:02:20+00",10.7,11.7,,61.3,470,-39,24,1023.62,58.1,0
"2016-10-07 10:07:20+00",10.7,10.7,,62.2,460,-127,9,1023.68,59,0
"2016-10-07 10:12:20+00",13.2,16.2,,62.4,595,-47,17,1023.6,59.4,0
"2016-10-07 10:17:20+00",13.6,14.6,,62.5,602,-94,9,1023.5,59.8,0
"2016-10-07 10:22:20+00",11.8,13.8,,62.3,527,0,24,1023.58,60.1,0
"2016-10-07 10:27:20+00",9.9,10.9,,62.2,436,-58,18,1023.68,60.3,0
"2016-10-07 10:32:20+00",11.7,13.7,,62.1,515,-63,19,1023.69,60.3,0
"2016-10-07 10:37:20+00",12.2,13.2,,62.4,542,-27,21,1023.7,60.5,0
"2016-10-07 10:42:20+00",11.1,13.1,,62.3,497,-22,17,1023.68,60.5,0
"2016-10-07 10:47:20+00",11.9,12.9,,62.3,533,-14,17,1023.74,60.6,0
"2016-10-07 10:52:20+00",13.0,15.0,,62.3,587,-13,10,1023.66,60.7,0
"2016-10-07 10:57:20+00",11.1,12.1,,62.3,494,30,25,1023.72,60.6,0
"2016-10-07 11:02:20+00",9.9,10.9,,62.1,442,-58,15,1023.73,60.7,0
"2016-10-07 11:07:20+00",10.7,12.7,,62.1,475,-55,10,1023.84,60.7,0
"2016-10-07 11:12:20+00",10.5,12.5,,62.1,469,-55,7,1023.87,60.7,0
"2016-10-07 11:17:20+00",11.2,14.2,,62.2,504,-15,20,1023.92,60.8,0
"2016-10-07 11:22:20+00",11.4,14.4,,62.4,506,-68,14,1023.94,61,0
"2016-10-07 11:27:20+00",9.2,11.2,,62.6,404,-86,4,1024.02,61.2,0
"2016-10-07 11:32:20+00",9.9,11.9,,62.8,430,-81,19,1023.95,61.5,0
"2016-10-07 11:37:20+00",10.5,11.5,,62.9,463,-51,14,1024.02,61.7,0
"2016-10-07 11:42:20+00",10.0,12.0,,62.9,446,-18,10,1024.06,61.9,2.1
"2016-10-07 11:47:20+00",7.9,8.9,,62.8,336,-86,-1,1024.11,62.1,0.1
"2016-10-07 11:52:20+00",9.0,11.0,,62.9,396,-28,19,1024.23,62.1,0.5
"2016-10-07 11:57:20+00",10.1,12.1,,63.1,443,-9,14,1024.18,62.3,5.4
"2016-10-07 12:02:20+00",7.2,8.2,,63.3,324,-3,9,1024.18,62.6,20
"2016-10-07 12:07:20+00",6.2,7.2,,63.4,273,-30,5,1024.24,62.9,88.3
"2016-10-07 12:12:20+00",7.7,9.7,,63.5,334,68,13,1024.23,63.4,47.1
"2016-10-07 12:17:20+00",9.2,11.2,,63.8,407,1,2,1024.13,64,91
"2016-10-07 12:22:20+00",9.8,10.8,,63.8,436,19,23,1024.19,64.1,2.7
"2016-10-07 12:27:20+00",11.1,12.1,,63.5,497,-3,18,1024.12,63.8,46.8
"2016-10-07 12:32:20+00",10.9,12.9,,63.8,490,-9,24,1024.15,64.1,127.1
"2016-10-07 12:37:20+00",11.2,12.2,,64.2,496,-51,23,1024.15,64.7,136.6
"2016-10-07 12:42:20+00",8.7,9.7,,64.5,383,20,50,1024.11,65.3,144.3
"2016-10-07 12:47:20+00",9.8,11.8,,64.5,435,-22,39,1024.09,65.8,146.9
"2016-10-07 12:52:20+00",11.1,13.1,,64.6,487,61,11,1024.15,66.3,154.9
"2016-10-07 12:57:20+00",10.4,12.4,,64.7,451,85,35,1024.1,66.7,168.3
"2016-10-07 13:02:20+00",11.0,13.0,,64.8,486,93,35,1024.04,67,178.8
"2016-10-07 13:07:20+00",11.0,13.0,,64.6,488,69,26,1024.12,67,180.7
"2016-10-07 13:12:20+00",10.4,12.4,,64.7,457,111,28,1024,66.9,163.6
"2016-10-07 13:17:20+00",10.3,11.3,,64.8,429,145,40,1024.06,67.1,286.7
"2016-10-07 13:22:20+00",11.2,12.2,,64.9,474,164,25,1024.12,67.4,105.3
"2016-10-07 13:27:20+00",12.0,13.0,,64.8,530,63,23,1024.19,67.2,158.2
"2016-10-07 13:32:20+00",12.4,14.4,,64.7,529,172,18,1024.15,67.1,142.6
"2016-10-07 13:37:20+00",10.8,11.8,,64.9,461,145,44,1024.21,67,125.7
"2016-10-07 13:42:20+00",11.4,12.4,,64.8,490,155,18,1024.15,66.9,135.8
"2016-10-07 13:47:20+00",11.7,13.7,,64.9,497,93,44,1024.16,67,154.6
"2016-10-07 13:52:20+00",11.1,12.1,,65.3,467,176,63,1024.01,67.8,100.6
"2016-10-07 13:57:20+00",15.6,17.6,,64.9,684,139,20,1024.04,67.6,159.1
"2016-10-07 14:02:20+00",13.4,15.4,,65.1,576,198,29,1024.02,67.9,279.3
"2016-10-07 14:07:20+00",12.7,14.7,,65.1,547,162,26,1024.1,68,307.9
"2016-10-07 14:12:20+00",11.6,12.6,,64.8,493,150,2,1024.2,67.7,308.4
"2016-10-07 14:17:20+00",12.6,13.6,,65,543,156,25,1024.37,68.4,156.9
"2016-10-07 14:22:20+00",12.0,13.0,,65.2,541,11,48,1024.27,68.1,211.1
"2016-10-07 14:27:20+00",14.7,16.7,,65,637,184,12,1024.19,67.9,220
"2016-10-07 14:32:20+00",14.3,16.3,,65.3,628,181,39,1024.11,68.4,351.1
"2016-10-07 14:37:20+00",13.1,16.1,,65.1,565,159,29,1023.99,68.1,315.1
"2016-10-07 14:42:20+00",13.3,16.3,,65.4,583,109,59,1023.93,68.5,330.8
"2016-10-07 14:47:20+00",14.3,16.3,,65.3,592,236,31,1023.88,68.6,263.3
"2016-10-07 14:52:20+00",13.9,15.9,,65.3,564,254,48,1023.86,68.6,336.5
"2016-10-07 14:57:20+00",15.5,17.5,,65.4,679,139,19,1023.9,69,349.2
"2016-10-07 15:02:20+00",12.9,14.9,,65.3,547,176,47,1023.97,68.8,286
"2016-10-07 15:07:20+00",14.6,17.6,,65.3,610,254,16,1023.86,68.8,391.1
"2016-10-07 15:12:20+00",13.5,16.5,,65.3,586,184,22,1023.92,69,373
"2016-10-07 15:17:20+00",14.0,15.0,,65.5,575,242,14,1023.97,69.3,360.4
"2016-10-07 15:22:20+00",13.1,15.1,,65.6,554,242,52,1023.92,69,275.8
"2016-10-07 15:27:20+00",13.6,14.6,,65.7,545,272,39,1023.96,69.3,298.4
"2016-10-07 15:32:20+00",12.5,14.5,,65.5,535,178,11,1023.94,69.3,343.6
"2016-10-07 15:37:20+00",12.8,14.8,,65.4,534,223,17,1023.79,68.9,285.9
"2016-10-07 15:42:20+00",11.3,13.3,,65.7,506,47,44,1023.98,69.1,393
"2016-10-07 15:47:20+00",12.6,14.6,,65.7,493,262,49,1023.95,69,275.2
"2016-10-07 15:52:20+00",13.2,15.2,,65.7,588,56,26,1023.92,69.1,284.5
"2016-10-07 15:57:20+00",13.7,15.7,,65.7,613,36,36,1023.76,69.1,203.9
"2016-10-07 16:02:20+00",13.2,16.2,,65.7,573,144,31,1023.75,69,282.7
"2016-10-07 16:07:20+00",13.1,15.1,,65.5,576,106,51,1023.73,69,343.6
"2016-10-07 16:12:20+00",13.5,14.5,,65.5,570,225,7,1023.73,69,191.9
"2016-10-07 16:17:20+00",13.4,16.4,,65.6,580,156,20,1023.74,68.9,399.9
"2016-10-07 16:22:20+00",12.7,14.7,,65.6,550,114,14,1023.82,69,276.1
"2016-10-07 16:27:20+00",11.9,13.9,,65.8,527,83,33,1024.03,69.5,365.4
"2016-10-07 16:32:20+00",11.8,13.8,,65.8,517,115,58,1023.82,69.4,326.7
"2016-10-07 16:37:20+00",13.2,16.2,,66,581,79,32,1023.78,69.8,416.4
"2016-10-07 16:42:20+00",12.1,14.1,,65.5,513,192,38,1023.76,69,304.5
"2016-10-07 16:47:20+00",14.1,15.1,,66,627,87,17,1023.72,69.5,420.3
"2016-10-07 16:52:20+00",13.0,14.0,,66,553,192,1,1023.7,69.5,177.8
"2016-10-07 16:57:20+00",14.9,17.9,,65.7,648,177,26,1023.65,69.3,267.6
"2016-10-07 17:02:20+00",13.5,14.5,,65.9,591,117,37,1023.71,69.1,274.7
"2016-10-07 17:07:20+00",11.7,13.7,,66,491,173,20,1023.69,69.4,268.6
"2016-10-07 17:12:20+00",12.5,14.5,,66.2,539,159,32,1023.61,69.8,260.4
"2016-10-07 17:17:20+00",12.6,14.6,,65.9,535,192,29,1023.55,69.3,241.1
"2016-10-07 17:22:20+00",12.8,13.8,,65.8,486,286,7,1023.57,68.9,244.4
"2016-10-07 17:27:20+00",11.0,13.0,,66,435,220,50,1023.39,69.2,203.9
"2016-10-07 17:32:20+00",12.1,14.1,,66,524,101,30,1023.5,69,209.3
"2016-10-07 17:37:20+00",11.9,13.9,,66.1,527,122,61,1023.49,69,161.8
"2016-10-07 17:42:20+00",13.3,14.3,,65.7,578,161,21,1023.33,68.7,191.4
"2016-10-07 17:47:20+00",12.5,13.5,,65.7,547,107,25,1023.28,68.6,183.8
"2016-10-07 17:52:20+00",11.0,13.0,,65.7,480,90,37,1023.2,68.7,190.2
"2016-10-07 17:57:20+00",12.2,14.2,,66.1,512,215,40,1023.31,68.6,170
"2016-10-07 18:02:20+00",12.5,13.5,,65.8,470,285,0,1023.2,68.7,251.3
"2016-10-07 18:07:20+00",13.2,16.2,,66.1,510,283,16,1023.14,69,259.9
"2016-10-07 18:12:20+00",12.6,14.6,,65.9,512,240,45,1023.18,68.9,318.6
"2016-10-07 18:17:20+00",12.3,14.3,,66.1,530,154,43,1023.1,69.2,251.4
"2016-10-07 18:22:20+00",13.7,15.7,,65.9,512,318,21,1023.06,69.2,374.3
"2016-10-07 18:27:20+00",13.6,16.6,,66.7,552,246,61,1023.01,69.9,386
"2016-10-07 18:32:20+00",13.6,15.6,,65.9,533,269,45,1023.06,69.4,350.8
"2016-10-07 18:37:20+00",10.5,13.5,,66.2,450,165,84,1022.95,69.5,340.3
"2016-10-07 18:42:20+00",13.1,15.1,,66.1,539,234,34,1022.9,69.5,327.1
"2016-10-07 18:47:20+00",12.3,15.3,,66.2,489,239,49,1022.87,69.5,279.4
"2016-10-07 18:52:20+00",14.3,16.3,,66.2,627,119,27,1022.78,69.6,343.2
"2016-10-07 18:57:20+00",12.0,14.0,,66,469,253,37,1022.94,69.3,330.8
"2016-10-07 19:02:20+00",14.2,16.2,,66.3,613,183,17,1022.89,69.5,275
"2016-10-07 19:07:20+00",12.4,14.4,,65.9,521,184,22,1022.95,69,173.3
"2016-10-07 19:12:20+00",12.7,14.7,,65.9,528,223,28,1022.88,68.9,314.8
"2016-10-07 19:17:20+00",12.7,14.7,,66,524,209,27,1022.86,69.1,280.5
"2016-10-07 19:22:20+00",12.4,13.4,,65.9,522,177,-2,1022.79,69.3,294.6
"2016-10-07 19:27:20+00",10.7,11.7,,65.9,453,161,26,1022.73,69,159.3
"2016-10-07 19:32:20+00",13.7,14.7,,65.8,614,65,4,1022.64,68.8,290.9
"2016-10-07 19:37:20+00",13.4,15.4,,65.8,571,189,41,1022.66,68.8,259
"2016-10-07 19:42:20+00",13.7,15.7,,65.9,591,195,30,1022.55,68.9,268.2
"2016-10-07 19:47:20+00",13.8,16.8,,66,593,180,43,1022.53,68.7,260.1
"2016-10-07 19:52:20+00",12.4,14.4,,65.9,525,200,20,1022.5,68.7,183.4
"2016-10-07 19:57:20+00",13.7,15.7,,65.7,590,150,20,1022.54,68.3,198.8
"2016-10-07 20:02:20+00",12.9,14.9,,65.8,557,174,38,1022.4,68.2,199.6
"2016-10-07 20:07:20+00",13.9,16.9,,65.8,600,154,39,1022.37,68.3,221.3
"2016-10-07 20:12:20+00",13.7,15.7,,65.9,602,135,31,1022.38,68.4,122.4
"2016-10-07 20:17:20+00",11.9,12.9,,65.5,506,161,43,1022.37,67.9,160.7
"2016-10-07 20:22:20+00",12.2,14.2,,65.6,518,176,19,1022.44,67.7,94.4
"2016-10-07 20:27:20+00",10.3,12.3,,65.7,425,170,54,1022.36,67.4,80.9
"2016-10-07 20:32:20+00",11.7,13.7,,65.6,513,113,21,1022.4,67.1,70.3
"2016-10-07 20:37:20+00",10.8,12.8,,65.7,457,172,46,1022.28,67,63.9
"2016-10-07 20:42:20+00",11.0,13.0,,65.6,467,162,37,1022.37,66.9,58.2
"2016-10-07 20:47:20+00",12.0,13.0,,65.6,529,112,34,1022.23,66.8,70.6
"2016-10-07 20:52:20+00",11.1,12.1,,65.6,456,202,30,1022.23,66.8,61.7
"2016-10-07 20:57:20+00",11.6,13.6,,65.5,483,188,19,1022.11,66.6,65.8
"2016-10-07 21:02:20+00",12.2,13.2,,65.6,523,154,-3,1022.18,66.6,53.1
"2016-10-07 21:07:20+00",12.8,14.8,,65.6,539,196,14,1022.24,66.5,32.4
"2016-10-07 21:12:20+00",11.1,12.1,,65.5,461,166,39,1022.13,66.3,21.7
"2016-10-07 21:17:20+00",11.0,13.0,,65.5,472,143,21,1022.06,66.2,20.8
"2016-10-07 21:22:20+00",12.7,13.7,,65.4,546,174,18,1022.04,66,25.8
"2016-10-07 21:27:20+00",10.9,12.9,,65.6,460,179,22,1022.05,66.1,49.4
"2016-10-07 21:32:20+00",11.9,13.9,,65.6,512,151,17,1021.94,66.1,19.6
"2016-10-07 21:37:20+00",11.4,13.4,,65.5,464,190,38,1021.9,66,11.3
"2016-10-07 21:42:20+00",11.6,13.6,,65.6,500,172,8,1021.85,65.9,3.5
"2016-10-07 21:47:20+00",10.5,12.5,,65.6,449,149,19,1021.89,65.8,0.6
"2016-10-07 21:52:20+00",11.0,13.0,,65.5,474,166,26,1021.89,65.7,0
"2016-10-07 21:57:20+00",10.5,12.5,,65.5,450,156,20,1021.89,65.5,0
"2016-10-07 22:02:20+00",9.1,11.1,,65.5,391,112,33,1021.87,65.5,0
"2016-10-07 22:07:20+00",11.4,13.4,,65.5,496,128,20,1022.04,65.3,0
"2016-10-07 22:12:20+00",8.8,10.8,,65.4,372,139,20,1022.01,65.1,0
"2016-10-07 22:17:20+00",10.3,11.3,,65.4,450,100,21,1021.95,64.9,0
"2016-10-07 22:22:20+00",9.4,10.4,,65.3,396,125,29,1021.88,64.9,0
"2016-10-07 22:27:20+00",8.7,10.7,,65.3,379,112,22,1021.93,64.7,0
"2016-10-07 22:32:20+00",10.4,12.4,,65.3,450,134,16,1021.88,64.5,0
"2016-10-07 22:37:20+00",7.8,8.8,,65.2,331,87,10,1022.09,64.5,0
"2016-10-07 22:42:20+00",9.1,11.1,,65.2,398,124,22,1021.99,64.3,0
"2016-10-07 22:47:20+00",10.6,11.6,,65.3,458,118,22,1021.85,64.3,0
"2016-10-07 22:52:20+00",9.5,10.5,,65.2,413,89,25,1021.81,64.3,0
"2016-10-07 22:57:20+00",10.1,12.1,,65.3,443,83,29,1021.89,64.3,0
"2016-10-07 23:02:20+00",10.8,11.8,,65.3,472,96,26,1021.87,64.3,0
"2016-10-07 23:07:20+00",11.4,12.4,,65.3,503,96,29,1021.81,64.3,0
"2016-10-07 23:12:20+00",10.2,11.2,,65.3,444,86,25,1021.78,64.2,0
"2016-10-07 23:17:20+00",9.9,11.9,,65.3,432,64,32,1021.78,64.2,0
"2016-10-07 23:22:20+00",10.6,11.6,,65.3,459,69,22,1021.8,64.2,0
"2016-10-07 23:27:20+00",11.0,12.0,,65.3,484,86,20,1021.64,64.2,0
"2016-10-07 23:32:20+00",9.7,10.7,,65.2,428,74,20,1021.7,64.2,0
"2016-10-07 23:37:20+00",10.7,12.7,,65.2,469,75,30,1021.68,64.1,0
"2016-10-07 23:42:20+00",10.5,12.5,,65.3,471,81,20,1021.62,64.1,0
"2016-10-07 23:47:20+00",10.4,11.4,,65.4,450,71,23,1021.61,64.1,0
"2016-10-07 23:52:20+00",10.7,12.7,,65.3,471,82,25,1021.59,64.2,0
"2016-10-07 23:57:20+00",10.6,12.6,,65.3,468,84,23,1021.51,64.2,0
